Location: Byhalia Creek
(34.8270°N, 89.8040°W)
Time: 08:15:39
(UTC+00:00)

Cosmos 2278 Rocket - Pass Details

Date: 22 April 2026
Orbit: 839 x 845 km, 71.0° (Epoch: 14 May)

Event Time Altitude Azimuth Distance (km) Brightness Sun altitude
Rises 01:43:00 0° 337° (NNW) 3,408 6.2 -13.6°
Reaches altitude 10° 01:45:27 10° 336° (NNW) 2,469 5.4 -14.1°
Maximum altitude 01:51:07 76° 252° (WSW) 870 2.3 -15.1°
Enters shadow 01:56:33 11° 167° (SSE) 2,382 4.2 -16.1°
